#timestamp,LO_Frequency,Hit,StdDev 
1596524415.8,286047018.2,N
1596524435.7,286047019.7,N
1596524455.5,286047018.2,N
1596524475.3,286047021.8,N
1596524495.2,286047015.8,N
1596524515.0,286047018.4,N
1596524515.9,286047018.4,N
1596524535.8,286047018.0,N
1596524555.6,286047016.3,N
1596524575.4,286047013.5,N
1596524595.3,286047006.4,N
1596524615.1,286047005.8,N
1596524616.0,286047005.8,N
1596524635.8,286047003.6,N
1596524655.7,286047006.9,N
1596524675.5,286047004.1,N
1596524695.3,286047001.8,N
1596524715.2,286047005.3,N
1596524735.0,286047002.7,N
1596524735.9,286047002.7,N
1596524755.8,286047000.4,N
1596524775.6,286046999.7,N
1596524795.5,286047000.0,N
1596524815.3,286047002.1,N
1596524835.1,286047005.1,N
1596524855.9,286047007.8,N
1596524875.7,286047004.8,N
1596524895.5,286047005.5,N
1596524915.4,286047009.1,N
1596524935.2,286047012.4,N
1596524955.1,286047013.9,N
1596524956.0,286047013.9,N
1596524975.8,286047011.2,N
1596524995.6,286047009.6,N
1596525015.5,286047011.8,N
1596525035.3,286047009.7,N
1596525055.1,286047010.0,N
1596525075.9,286047009.3,N
1596525095.7,286047004.4,N
1596525115.6,286046999.8,N
1596525135.4,286047000.3,N
1596525155.2,286046999.5,N
1596525175.1,286046993.9,N
1596525176.0,286046993.9,N
1596525195.8,286046990.7,N
1596525215.7,286046988.8,N
1596525235.5,286046988.7,N
1596525255.3,286046987.3,N
1596525275.2,286046986.3,N
1596525295.9,286046988.0,N
1596525315.7,286046986.7,N
1596525335.6,286046986.7,N
1596525355.4,286046984.2,N
1596525375.3,286046986.6,N
1596525395.1,286046981.4,N
1596525396.0,286046981.4,N
1596525415.8,286046978.6,N
1596525435.7,286046978.4,N
1596525455.5,286046976.9,N
1596525475.3,286046978.6,N
1596525495.2,286046976.7,N
1596525515.0,286046979.3,N
1596525515.9,286046979.3,N
1596525535.8,286046978.7,N
1596525555.6,286046976.8,N
1596525575.4,286046978.7,N
1596525595.3,286046977.4,N
1596525615.1,286046979.8,N
1596525635.8,286046979.9,N
1596525655.7,286046981.7,N
1596525675.5,286046982.4,N
1596525695.4,286046984.5,N
1596525715.2,286046983.8,Y
1596525735.0,286047000.3,P
1596525735.9,286047000.3,N
1596525755.8,286047002.6,N
1596525775.6,286047000.1,N
1596525795.5,286046999.9,N
1596525815.3,286047002.2,N
1596525835.1,286047005.9,N
1596525855.9,286047003.6,N
1596525875.7,286047000.9,N
1596525895.5,286047005.6,N
1596525915.4,286047002.3,N
1596525935.2,286046999.7,N
1596525955.1,286046999.1,N
1596525956.0,286046999.1,N
1596525975.8,286047000.4,N
1596525995.6,286046998.4,N
1596526015.5,286047000.6,N
1596526035.3,286046998.8,N
1596526055.2,286047000.8,N
1596526075.9,286046999.3,N
1596526095.7,286046995.0,N
1596526115.6,286046999.2,N
1596526135.4,286047002.5,N
1596526155.2,286047001.3,N
1596526175.1,286046998.3,N
1596526176.0,286046998.3,N
1596526195.8,286047002.4,N
1596526215.7,286046998.2,N
1596526235.5,286047002.6,N
1596526255.3,286047006.0,N
1596526275.2,286047004.8,N
1596526295.0,286047000.7,N
1596526295.9,286047000.7,N
1596526315.7,286047000.0,N
1596526335.6,286046999.5,N
1596526355.4,286046997.2,N
1596526375.3,286046994.5,N
1596526395.1,286046992.2,N
1596526415.8,286046992.1,N
1596526435.7,286046995.8,N
1596526455.5,286046996.7,N
1596526475.4,286046995.5,N
1596526495.2,286046994.7,N
1596526515.0,286046994.7,N
1596526515.9,286046994.7,N
1596526535.8,286046992.3,N
1596526555.6,286046994.0,N
1596526575.4,286046991.7,N
1596526595.3,286046994.7,N
1596526615.1,286046991.0,N
1596526635.9,286046989.6,N
1596526655.7,286046989.2,N
1596526675.6,286046986.1,Y
1596526695.4,286046988.6,P
1596526715.2,286046993.0,N
1596526735.1,286046992.4,N
1596526736.0,286046992.4,N
1596526755.8,286046991.9,Y
1596526775.7,286046996.9,P
1596526795.5,286046998.3,N
1596526815.3,286046998.8,N
1596526835.2,286046999.5,N
1596526855.9,286046997.0,N
1596526875.7,286046995.0,N
1596526895.6,286046999.5,N
1596526915.4,286047000.8,N
1596526935.2,286046996.9,N
1596526955.1,286046998.2,N
1596526956.0,286046998.2,N
1596526975.8,286046997.8,N
1596526995.7,286046999.0,N
1596527015.5,286046996.9,N
1596527035.3,286046999.2,N
1596527055.2,286046997.0,N
1596527075.0,286046997.5,N
1596527075.9,286046997.5,N
1596527095.7,286046999.4,N
1596527115.6,286046994.9,N
1596527135.4,286047001.1,N
1596527155.3,286046996.5,N
1596527175.1,286046998.7,N
1596527176.0,286046998.7,N
1596527195.8,286047000.7,N
1596527215.7,286046998.7,N
1596527235.5,286047000.1,N
1596527255.3,286047000.7,N
1596527275.2,286047000.9,N
1596527295.0,286047000.4,N
1596527295.9,286047000.4,N
1596527315.8,286046996.7,N
1596527335.6,286047000.7,N
1596527355.4,286046994.1,Y
1596527375.3,286046997.5,P
1596527395.1,286046997.1,P
1596527415.8,286046994.9,P
1596527435.7,286046995.8,Y
1596527455.5,286047000.4,P
1596527475.4,286047005.1,P
1596527495.2,286047000.5,N
1596527515.0,286047005.4,N
1596527515.9,286047005.4,N
1596527535.8,286047006.9,N
1596527555.6,286047007.3,N
1596527575.5,286047004.9,N
1596527595.3,286047005.9,N
1596527615.1,286047004.2,N
1596527635.9,286047001.9,N
1596527655.7,286047002.7,N
1596527675.6,286046996.5,N
1596527695.4,286046995.2,N
1596527715.2,286046995.9,N
1596527735.1,286046995.1,N
1596527736.0,286046995.1,N
1596527755.8,286046998.4,N
1596527775.7,286047005.7,N
1596527795.5,286047002.6,N
1596527815.3,286047005.9,N
1596527835.2,286047000.7,N
1596527855.9,286046998.1,N
1596527875.7,286047001.1,N
1596527895.6,286047000.6,N
1596527915.4,286046998.4,N
1596527935.2,286046997.3,N
1596527955.1,286047000.0,N
1596527956.0,286047000.0,N
1596527975.8,286047003.5,N
1596527995.7,286047009.2,N
